Sion, Switzerland

6:27 AM CEST on May 25, 2017 (GMT +0200)
Sion

Weather History for LSGS - February, 2013

Change the Weather History Date:

Monday, February 18, 2013

  Actual Average Record
Temperature  
Mean Temperature 34 °F -  
Max Temperature 45 °F - - ()
Min Temperature 24 °F - - ()
Degree Days  
Heating Degree Days 30    
Moisture  
Dew Point 17 °F    
Average Humidity 47    
Maximum Humidity 80    
Minimum Humidity 17    
Precipitation  
Precipitation 0.00 in - - ()
Sea Level Pressure  
Sea Level Pressure 30.09 in    
Wind  
Wind Speed 4 mph ()    
Max Wind Speed 8 mph    
Max Gust Speed -    
Visibility 7.2 miles    
Events      
T = Trace of Precipitation, MM = Missing Value Source: Averaged Metar Reports

Daily Weather History Graph

Daily Weather History Graph

Search for Another Location

Airport or City:

Trip Planner

Search our weather history database for the weather conditions in past years. The results will help you decide how hot, cold, wet, or windy it might be!

Date:

Astronomy

Feb. 18, 2013 Rise Set
Actual Time 7:28 AM CET 6:01 PM CET
Civil Twilight 6:58 AM CET 6:31 PM CET
Nautical Twilight 6:23 AM CET 7:06 PM CET
Astronomical Twilight 5:48 AM CET 7:41 PM CET
Moon 11:25 AM CET (2/18) 2:02 AM CET (2/18)
Length of Visible Light 11h 33m
Length of Day
10h 32m
First Quarter, 56% of the Moon is Illuminated
Feb 18
First Quarter
Feb 25
Full
Mar 4
Last Quarter
Mar 11
New
Mar 19
First Quarter

Hourly Weather History & Observations

Time (CET) Temp. Windchill Dew Point Humidity Pressure Visibility Wind Dir Wind Speed Gust Speed Precip Events Conditions
12:00 AM 31 °F - 23 °F 64% 30.13 in - ENE 3.5 mph - -  
1:00 AM 30 °F - 22 °F 64% 30.14 in 9 mi East 2.3 mph - -   Partly Cloudy
2:00 AM 30 °F - 21 °F 60% 30.13 in - ENE 3.5 mph - -  
3:00 AM 28 °F - 21 °F 66% 30.14 in - NE 3.5 mph - -  
5:00 AM 26 °F - 19 °F 67% 30.15 in - East 1.2 mph - -  
6:00 AM 27 °F - 20 °F 66% 30.16 in - East 3.5 mph - -  
7:00 AM 27 °F - 18 °F 58% 30.16 in - East 3.5 mph - -  
7:20 AM 24.8 °F 19.1 °F 19.4 °F 80% 30.06 in 6.2 mi East 4.6 mph - N/A   Partly Cloudy
7:50 AM 26.6 °F 19.1 °F 17.6 °F 69% 30.06 in 6.2 mi East 6.9 mph - N/A   Partly Cloudy
8:00 AM 26 °F - 18 °F 61% 30.19 in - East 3.5 mph - -  
8:20 AM 26.6 °F 19.1 °F 19.4 °F 74% 30.09 in - East 6.9 mph - N/A   Clear
8:50 AM 26.6 °F 21.2 °F 19.4 °F 74% 30.09 in - East 4.6 mph - N/A   Clear
9:00 AM 27 °F - 18 °F 59% 30.19 in - East 3.5 mph - -  
9:20 AM 28.4 °F 22.2 °F 19.4 °F 69% 30.09 in - East 5.8 mph - N/A   Clear
9:50 AM 30.2 °F 24.3 °F 19.4 °F 64% 30.09 in - East 5.8 mph - N/A   Clear
10:20 AM 30.2 °F 23.4 °F 19.4 °F 64% 30.09 in - East 6.9 mph - N/A   Clear
10:50 AM 32.0 °F 27.5 °F 15.8 °F 51% 30.09 in - East 4.6 mph - N/A   Clear
11:00 AM 34 °F - 17 °F 35% 30.15 in - ESE 3.5 mph - -  
11:20 AM 33.8 °F 28.6 °F 14.0 °F 44% 30.06 in 6.2 mi East 5.8 mph - N/A   Partly Cloudy
11:50 AM 35.6 °F - 12.2 °F 38% 30.06 in 6.2 mi Variable 2.3 mph - N/A   Partly Cloudy
12:00 PM 38 °F - 16 °F 27% 30.13 in - SSE 2.3 mph - -  
12:50 PM 39.2 °F - 10.4 °F 31% 30.04 in 6.2 mi Variable 2.3 mph - N/A   Partly Cloudy
1:00 PM 41 °F - 14 °F 20% 30.09 in 12 mi South 3.5 mph - -   Scattered Clouds
1:20 PM 41.0 °F - 8.6 °F 26% 30.04 in 6.2 mi Variable 2.3 mph - N/A   Partly Cloudy
1:50 PM 41.0 °F 39.0 °F 10.4 °F 29% 30.04 in 6.2 mi Variable 3.5 mph - N/A   Partly Cloudy
2:00 PM 42 °F - 12 °F 17% 30.07 in - SSE 1.2 mph - -  
2:20 PM 42.8 °F 41.1 °F 8.6 °F 25% 30.01 in 6.2 mi Variable 3.5 mph - N/A   Partly Cloudy
2:50 PM 42.8 °F 41.1 °F 10.4 °F 27% 30.01 in 6.2 mi Variable 3.5 mph - N/A   Partly Cloudy
3:00 PM 44 °F - 14 °F 17% 30.04 in - South 2.3 mph - -  
3:20 PM 44.6 °F - 10.4 °F 25% 30.01 in 6.2 mi Variable 2.3 mph - N/A   Partly Cloudy
3:50 PM 44.6 °F - 10.4 °F 25% 30.01 in 6.2 mi Variable 2.3 mph - N/A   Partly Cloudy
4:20 PM 44.6 °F 42.2 °F 12.2 °F 27% 30.01 in 6.2 mi SW 4.6 mph - N/A   Partly Cloudy
4:50 PM 44.6 °F 42.2 °F 14.0 °F 29% 30.01 in 6.2 mi WSW 4.6 mph - N/A   Partly Cloudy
5:00 PM 44 °F - 14 °F 17% 30.03 in - WSW 3.5 mph - -  
5:20 PM 42.8 °F 38.6 °F 15.8 °F 34% 30.01 in 6.2 mi WSW 6.9 mph - N/A   Partly Cloudy
5:50 PM 37.4 °F 31.4 °F 24.8 °F 60% 30.04 in 6.2 mi West 8.1 mph - N/A   Partly Cloudy
6:00 PM 38 °F - 25 °F 47% 30.08 in - West 6.9 mph - -  
6:20 PM 37.4 °F 32.1 °F 24.8 °F 60% 30.04 in 6.2 mi West 6.9 mph - N/A   Partly Cloudy
7:00 PM 35 °F - 25 °F 56% 30.12 in 16 mi West 2.3 mph - -   Scattered Clouds
8:00 PM 33 °F - 20 °F 46% 30.14 in - East 2.3 mph - -  
9:00 PM 31 °F - 21 °F 56% 30.17 in - East 3.5 mph - -  
11:00 PM 31 °F - 19 °F 48% 30.19 in - East 4.6 mph - -